Time,TemperatureF,DewpointF,PressureIn,WindDirection,WindDirectionDegrees,WindSpeedMPH,WindSpeedGustMPH,Humidity,HourlyPrecipIn,Conditions,Clouds,dailyrainin,SoftwareType,DateUTC
2013-06-18 00:12:00,72.0,68.0,-100.00,WNW,298,3.0,7.0,87,-99.99,,,-99.99,,2013-06-18 04:12:00,
2013-06-18 00:53:00,69.0,65.0,-100.00,SW,226,5.0,7.0,87,-99.99,,,-99.99,,2013-06-18 04:53:00,
2013-06-18 01:12:00,69.0,65.0,-100.00,SW,226,5.0,8.0,87,-99.99,,,-99.99,,2013-06-18 05:12:00,
2013-06-18 01:34:00,69.0,65.0,-100.00,North,0,3.0,8.0,87,-99.99,,,-99.99,,2013-06-18 05:34:00,
2013-06-18 01:53:00,68.0,64.0,-100.00,NE,44,2.0,8.0,87,-99.99,,,-99.99,,2013-06-18 05:53:00,
2013-06-18 02:12:00,68.0,64.0,-100.00,NE,44,2.0,2.0,87,-99.99,,,-99.99,,2013-06-18 06:12:00,
2013-06-18 02:32:00,65.0,58.0,-100.00,South,182,2.0,-999.0,78,-99.99,,,-99.99,,2013-06-18 06:32:00,
2013-06-18 02:43:00,65.0,58.0,-100.00,South,182,2.0,-999.0,78,-99.99,,,-99.99,,2013-06-18 06:43:00,
2013-06-18 02:53:00,65.0,58.0,-100.00,South,182,2.0,-999.0,78,-99.99,,,-99.99,,2013-06-18 06:53:00,
2013-06-18 03:02:00,65.0,58.0,-100.00,South,182,2.0,-999.0,78,-99.99,,,-99.99,,2013-06-18 07:02:00,
2013-06-18 03:12:00,65.0,58.0,-100.00,South,182,2.0,-999.0,78,-99.99,,,-99.99,,2013-06-18 07:12:00,
2013-06-18 03:22:00,65.0,58.0,-100.00,South,182,2.0,-999.0,78,-99.99,,,-99.99,,2013-06-18 07:22:00,
2013-06-18 03:33:00,65.0,59.0,-100.00,SW,230,6.0,-999.0,81,-99.99,,,-99.99,,2013-06-18 07:33:00,
2013-06-18 03:43:00,62.0,59.0,-100.00,North,0,1.0,-999.0,91,-99.99,,,-99.99,,2013-06-18 07:43:00,
2013-06-18 03:53:00,62.0,59.0,-100.00,North,0,1.0,-999.0,91,-99.99,,,-99.99,,2013-06-18 07:53:00,
2013-06-18 04:02:00,62.0,59.0,-100.00,North,0,1.0,-999.0,91,-99.99,,,-99.99,,2013-06-18 08:02:00,
2013-06-18 04:11:00,62.0,59.0,-100.00,North,0,0.0,-999.0,91,-99.99,,,-99.99,,2013-06-18 08:11:00,
2013-06-18 04:23:00,59.0,57.0,-100.00,WNW,290,1.0,-999.0,91,-99.99,,,-99.99,,2013-06-18 08:23:00,
2013-06-18 04:33:00,59.0,56.0,-100.00,North,2,0.0,-999.0,91,-99.99,,,-99.99,,2013-06-18 08:33:00,
2013-06-18 04:43:00,59.0,56.0,-100.00,North,2,0.0,-999.0,91,-99.99,,,-99.99,,2013-06-18 08:43:00,
2013-06-18 04:52:00,59.0,56.0,-100.00,North,2,0.0,-999.0,91,-99.99,,,-99.99,,2013-06-18 08:52:00,
2013-06-18 05:02:00,59.0,57.0,-100.00,North,2,0.0,-999.0,92,-99.99,,,-99.99,,2013-06-18 09:02:00,
2013-06-18 05:12:00,59.0,57.0,-100.00,ENE,70,0.0,-999.0,91,-99.99,,,-99.99,,2013-06-18 09:12:00,
2013-06-18 05:22:00,59.0,57.0,-100.00,ENE,70,2.0,-999.0,92,-99.99,,,-99.99,,2013-06-18 09:22:00,
2013-06-18 05:34:00,59.0,57.0,-100.00,North,4,2.0,-999.0,91,-99.99,,,-99.99,,2013-06-18 09:34:00,
2013-06-18 05:43:00,59.0,57.0,-100.00,North,4,2.0,5.0,91,-99.99,,,-99.99,,2013-06-18 09:43:00,
2013-06-18 05:53:00,59.0,57.0,-100.00,NE,35,1.0,2.0,92,-99.99,,,-99.99,,2013-06-18 09:53:00,
2013-06-18 06:02:00,59.0,57.0,-100.00,NE,35,2.0,2.0,91,-99.99,,,-99.99,,2013-06-18 10:02:00,
2013-06-18 06:11:00,60.0,57.0,-100.00,NE,35,1.0,3.0,91,-99.99,,,-99.99,,2013-06-18 10:11:00,
2013-06-18 06:22:00,60.0,57.0,-100.00,NNW,345,2.0,2.0,91,-99.99,,,-99.99,,2013-06-18 10:22:00,
2013-06-18 06:43:00,60.0,58.0,-100.00,NNE,20,1.0,5.0,92,-99.99,,,-99.99,,2013-06-18 10:43:00,
2013-06-18 06:53:00,60.0,58.0,-100.00,North,10,2.0,5.0,91,-99.99,,,-99.99,,2013-06-18 10:53:00,
2013-06-18 07:22:00,61.0,59.0,-100.00,NNE,15,2.0,5.0,91,-99.99,,,-99.99,,2013-06-18 11:22:00,
2013-06-18 07:32:00,61.0,59.0,-100.00,NNE,15,2.0,5.0,91,-99.99,,,-99.99,,2013-06-18 11:32:00,
2013-06-18 08:11:00,64.0,61.0,-100.00,North,0,1.0,5.0,89,-99.99,,,-99.99,,2013-06-18 12:11:00,
2013-06-18 08:22:00,64.0,60.0,-100.00,North,0,3.0,3.0,87,-99.99,,,-99.99,,2013-06-18 12:22:00,
2013-06-18 08:33:00,66.0,61.0,-100.00,NNW,348,1.0,5.0,86,-99.99,,,-99.99,,2013-06-18 12:33:00,
2013-06-18 08:43:00,65.0,59.0,-100.00,East,85,1.0,5.0,81,-99.99,,,-99.99,,2013-06-18 12:43:00,
2013-06-18 08:52:00,67.0,59.0,-100.00,SSE,155,2.0,5.0,77,-99.99,,,-99.99,,2013-06-18 12:52:00,
2013-06-18 09:02:00,66.0,58.0,-100.00,SE,130,2.0,5.0,75,-99.99,,,-99.99,,2013-06-18 13:02:00,
2013-06-18 09:12:00,66.0,58.0,-100.00,SE,130,2.0,5.0,75,-99.99,,,-99.99,,2013-06-18 13:12:00,
2013-06-18 09:22:00,67.0,58.0,-100.00,ESE,120,1.0,5.0,74,-99.99,,,-99.99,,2013-06-18 13:22:00,
2013-06-18 09:33:00,68.0,58.0,-100.00,West,260,2.0,5.0,71,-99.99,,,-99.99,,2013-06-18 13:33:00,
2013-06-18 09:43:00,68.0,57.0,-100.00,North,0,5.0,5.0,68,-99.99,,,-99.99,,2013-06-18 13:43:00,
2013-06-18 09:52:00,69.0,57.0,-100.00,NW,310,1.0,7.0,66,-99.99,,,-99.99,,2013-06-18 13:52:00,
2013-06-18 10:02:00,70.0,59.0,-100.00,South,170,2.0,7.0,68,-99.99,,,-99.99,,2013-06-18 14:02:00,
2013-06-18 10:12:00,69.0,58.0,-100.00,ESE,110,2.0,7.0,69,-99.99,,,-99.99,,2013-06-18 14:12:00,
2013-06-18 10:22:00,69.0,57.0,-100.00,East,95,2.0,7.0,67,-99.99,,,-99.99,,2013-06-18 14:22:00,
2013-06-18 10:33:00,69.0,58.0,-100.00,SE,135,2.0,7.0,69,-99.99,,,-99.99,,2013-06-18 14:33:00,
2013-06-18 10:43:00,69.0,59.0,-100.00,SE,135,1.0,7.0,70,-99.99,,,-99.99,,2013-06-18 14:43:00,
2013-06-18 10:53:00,69.0,58.0,-100.00,SSE,155,3.0,8.0,68,-99.99,,,-99.99,,2013-06-18 14:53:00,
2013-06-18 11:02:00,70.0,59.0,-100.00,SSW,195,5.0,8.0,68,-99.99,,,-99.99,,2013-06-18 15:02:00,
2013-06-18 11:11:00,71.0,59.0,-100.00,NNE,15,1.0,8.0,66,-99.99,,,-99.99,,2013-06-18 15:11:00,
2013-06-18 11:22:00,70.0,59.0,-100.00,SSW,200,2.0,8.0,68,-99.99,,,-99.99,,2013-06-18 15:22:00,
2013-06-18 11:33:00,74.0,61.0,-100.00,SE,125,2.0,8.0,65,-99.99,,,-99.99,,2013-06-18 15:33:00,
2013-06-18 11:43:00,74.0,62.0,-100.00,East,90,1.0,5.0,66,-99.99,,,-99.99,,2013-06-18 15:43:00,
2013-06-18 12:23:00,70.0,58.0,-100.00,SSW,205,2.0,5.0,66,-99.99,,,-99.99,,2013-06-18 16:23:00,
2013-06-18 16:33:00,70.0,66.0,-100.00,ENE,65,2.0,10.0,86,-99.99,,,-99.99,,2013-06-18 20:33:00,
2013-06-18 16:43:00,68.0,64.0,-100.00,ENE,60,2.0,10.0,86,-99.99,,,-99.99,,2013-06-18 20:43:00,
2013-06-18 17:12:00,68.0,64.0,-100.00,East,85,1.0,5.0,86,-99.99,,,-99.99,,2013-06-18 21:12:00,
2013-06-18 17:33:00,68.0,64.0,-100.00,SSE,155,2.0,5.0,87,-99.99,,,-99.99,,2013-06-18 21:33:00,
2013-06-18 17:43:00,68.0,64.0,-100.00,SSE,160,3.0,5.0,87,-99.99,,,-99.99,,2013-06-18 21:43:00,
2013-06-18 18:12:00,68.0,64.0,-100.00,ESE,120,2.0,5.0,86,-99.99,,,-99.99,,2013-06-18 22:12:00,
2013-06-18 18:22:00,68.0,64.0,-100.00,East,95,0.0,6.0,87,-99.99,,,-99.99,,2013-06-18 22:22:00,
2013-06-18 18:34:00,68.0,64.0,-100.00,ENE,65,1.0,6.0,87,-99.99,,,-99.99,,2013-06-18 22:34:00,
2013-06-18 18:53:00,68.0,64.0,-100.00,SSE,150,3.0,6.0,87,-99.99,,,-99.99,,2013-06-18 22:53:00,
2013-06-18 19:02:00,68.0,65.0,-100.00,SE,140,3.0,6.0,89,-99.99,,,-99.99,,2013-06-18 23:02:00,
2013-06-18 22:11:00,65.0,61.0,-100.00,North,5,1.0,3.0,88,-99.99,,,-99.99,,2013-06-19 02:11:00,
2013-06-18 22:32:00,64.0,61.0,-100.00,North,350,1.0,3.0,90,-99.99,,,-99.99,,2013-06-19 02:32:00,
2013-06-18 22:42:00,64.0,61.0,-100.00,WSW,245,0.0,3.0,89,-99.99,,,-99.99,,2013-06-19 02:42:00,
2013-06-18 22:52:00,64.0,60.0,-100.00,SSE,165,1.0,2.0,88,-99.99,,,-99.99,,2013-06-19 02:52:00,
2013-06-18 23:01:00,64.0,61.0,-100.00,SSE,160,2.0,2.0,89,-99.99,,,-99.99,,2013-06-19 03:01:00,
2013-06-18 23:12:00,64.0,61.0,-100.00,South,170,0.0,2.0,90,-99.99,,,-99.99,,2013-06-19 03:12:00,
2013-06-18 23:22:00,64.0,61.0,-100.00,ESE,105,1.0,2.0,89,-99.99,,,-99.99,,2013-06-19 03:22:00,
2013-06-18 23:33:00,62.0,59.0,-100.00,East,85,1.0,2.0,90,-99.99,,,-99.99,,2013-06-19 03:33:00,
2013-06-18 23:43:00,62.0,59.0,-100.00,ESE,105,1.0,2.0,89,-99.99,,,-99.99,,2013-06-19 03:43:00,
2013-06-18 23:52:00,62.0,59.0,-100.00,SE,145,1.0,2.0,89,-99.99,,,-99.99,,2013-06-19 03:52:00,